PTSHR SBPV-SBEG

Flight info

Callsign PTSHR
Flight time N/A
Altitude 7000
Route ISURA Z45 ELOPE
Aircraft E110/L-SDG/C

Departure

Time 2026-04-30 13:12
Airport Governador Jorge Teixeira de Oliveira International Airport (SBPV)

Arrival

Time N/A
Airport Eduardo Gomes International Airport (SBEG)
Time Latitude Longitude Altitude Speed Heading
2026-04-30 13:00 -8.71285 -63.90022 296 ft 0 kts 177°
2026-04-30 13:07 -8.71287 -63.90022 296 ft 0 kts 175°
2026-04-30 13:08 -8.71314 -63.90030 296 ft 8 kts 207°
2026-04-30 13:08 -8.71365 -63.90057 296 ft 8 kts 201°
2026-04-30 13:08 -8.71445 -63.90059 296 ft 13 kts 174°
2026-04-30 13:08 -8.71537 -63.90054 296 ft 12 kts 174°
2026-04-30 13:09 -8.71590 -63.90048 296 ft 3 kts 183°
2026-04-30 13:09 -8.71638 -63.90050 296 ft 13 kts 181°
2026-04-30 13:09 -8.71748 -63.90043 296 ft 17 kts 173°
2026-04-30 13:09 -8.71875 -63.90039 296 ft 19 kts 205°
2026-04-30 13:10 -8.71975 -63.90122 296 ft 17 kts 222°
2026-04-30 13:10 -8.71974 -63.90171 296 ft 9 kts 352°
2026-04-30 13:10 -8.71958 -63.90173 296 ft 0 kts 356°
2026-04-30 13:10 -8.71677 -63.90192 296 ft 74 kts 357°
2026-04-30 13:11 -8.70999 -63.90232 296 ft 114 kts 356°
2026-04-30 13:11 -8.70199 -63.90293 406 ft 115 kts 356°
2026-04-30 13:11 -8.69368 -63.90374 530 ft 123 kts 355°
2026-04-30 13:11 -8.68444 -63.90448 591 ft 138 kts 356°
2026-04-30 13:12 -8.67442 -63.90525 711 ft 146 kts 357°
2026-04-30 13:12 -8.66413 -63.90552 862 ft 147 kts 13°
2026-04-30 13:12 -8.65576 -63.89996 1012 ft 146 kts 58°
2026-04-30 13:13 -8.64875 -63.88052 1361 ft 147 kts 73°
2026-04-30 13:13 -8.64562 -63.87076 1539 ft 146 kts 73°
2026-04-30 13:13 -8.63921 -63.85084 1840 ft 149 kts 73°
2026-04-30 13:14 -8.63596 -63.84078 1980 ft 150 kts 72°
2026-04-30 13:14 -8.63148 -63.83109 2120 ft 151 kts 59°
2026-04-30 13:14 -8.61861 -63.81501 2395 ft 152 kts 48°
2026-04-30 13:15 -8.61106 -63.80739 2536 ft 152 kts 45°
2026-04-30 13:15 -8.59520 -63.79263 2815 ft 151 kts 44°
2026-04-30 13:15 -8.58761 -63.78572 2946 ft 151 kts 44°
2026-04-30 13:16 -8.57970 -63.77855 3079 ft 151 kts 44°
2026-04-30 13:16 -8.57220 -63.77176 3203 ft 150 kts 44°
2026-04-30 13:16 -8.56428 -63.76461 3329 ft 150 kts 44°
2026-04-30 13:17 -8.54851 -63.75039 3584 ft 149 kts 44°
2026-04-30 13:17 -8.54099 -63.74361 3700 ft 149 kts 44°
2026-04-30 13:17 -8.52875 -63.73258 3887 ft 149 kts 44°
2026-04-30 13:18 -8.51831 -63.72317 4041 ft 148 kts 44°
2026-04-30 13:18 -8.50281 -63.70919 4262 ft 148 kts 44°
2026-04-30 13:18 -8.49504 -63.70220 4369 ft 148 kts 44°
2026-04-30 13:19 -8.48727 -63.69519 4477 ft 148 kts 44°
2026-04-30 13:19 -8.47960 -63.68829 4584 ft 148 kts 44°
2026-04-30 13:19 -8.47179 -63.68125 4692 ft 148 kts 44°
2026-04-30 13:19 -8.46442 -63.67461 4790 ft 148 kts 44°
2026-04-30 13:20 -8.45650 -63.66747 4894 ft 148 kts 44°
2026-04-30 13:20 -8.44883 -63.66056 4996 ft 147 kts 44°
2026-04-30 13:20 -8.44113 -63.65362 5092 ft 147 kts 44°
2026-04-30 13:20 -8.43335 -63.64661 5189 ft 147 kts 44°
2026-04-30 13:21 -8.42604 -63.64003 5281 ft 147 kts 44°
2026-04-30 13:21 -8.41845 -63.63319 5374 ft 146 kts 45°
2026-04-30 13:21 -8.41085 -63.62635 5463 ft 146 kts 45°
2026-04-30 13:22 -8.39566 -63.61268 5641 ft 146 kts 45°
2026-04-30 13:22 -8.38811 -63.60588 5732 ft 146 kts 45°
2026-04-30 13:22 -8.37321 -63.59246 5897 ft 146 kts 45°
2026-04-30 13:23 -8.36566 -63.58567 5979 ft 145 kts 45°
2026-04-30 13:23 -8.35048 -63.57202 6142 ft 145 kts 45°
2026-04-30 13:24 -8.33527 -63.55840 6300 ft 145 kts 45°
2026-04-30 13:24 -8.32001 -63.54468 6453 ft 145 kts 47°
2026-04-30 13:25 -8.31987 -63.52661 6524 ft 147 kts 133°
2026-04-30 13:25 -8.33766 -63.51798 6616 ft 145 kts 123°
2026-04-30 13:26 -8.32531 -63.49614 6751 ft 147 kts 29°
2026-04-30 13:26 -8.30646 -63.48768 6876 ft 148 kts 27°
2026-04-30 13:27 -8.28724 -63.47967 7004 ft 149 kts 26°
2026-04-30 13:28 -8.25790 -63.46799 7184 ft 150 kts 26°
2026-04-30 13:28 -8.23647 -63.45958 6766 ft 181 kts 25°
2026-04-30 13:28 -8.22489 -63.45510 6882 ft 171 kts 25°
2026-04-30 13:29 -8.20462 -63.44351 6957 ft 166 kts 37°
2026-04-30 13:29 -8.18521 -63.43035 6946 ft 167 kts 38°
2026-04-30 13:30 -8.15619 -63.41063 6951 ft 172 kts 37°
2026-04-30 13:31 -8.13569 -63.39669 6954 ft 181 kts 37°
2026-04-30 13:31 -8.10331 -63.37467 6944 ft 188 kts 37°
2026-04-30 13:32 -8.08155 -63.35988 6947 ft 189 kts 37°
2026-04-30 13:32 -8.05972 -63.34504 6950 ft 190 kts 37°
2026-04-30 13:33 -8.03836 -63.33052 6947 ft 191 kts 37°
2026-04-30 13:33 -8.01602 -63.31533 6950 ft 192 kts 37°
2026-04-30 13:34 -8.00486 -63.30774 6949 ft 192 kts 37°
2026-04-30 13:34 -7.97221 -63.28554 6948 ft 192 kts 37°
2026-04-30 13:35 -7.96132 -63.27815 6949 ft 192 kts 37°
2026-04-30 13:35 -7.93891 -63.26292 6946 ft 192 kts 37°
2026-04-30 13:36 -7.91728 -63.24823 6948 ft 192 kts 37°
2026-04-30 13:36 -7.90620 -63.24071 6949 ft 193 kts 37°
2026-04-30 13:36 -7.88403 -63.22565 6946 ft 193 kts 37°
2026-04-30 13:37 -7.87308 -63.21821 6947 ft 193 kts 37°
2026-04-30 13:37 -7.85139 -63.20348 6946 ft 193 kts 37°
2026-04-30 13:38 -7.82932 -63.18850 6945 ft 193 kts 37°
2026-04-30 13:38 -7.81816 -63.18092 6945 ft 193 kts 37°
2026-04-30 13:38 -7.79562 -63.16562 6945 ft 192 kts 37°
2026-04-30 13:39 -7.77339 -63.15053 6946 ft 192 kts 37°
2026-04-30 13:39 -7.75083 -63.13522 6947 ft 193 kts 37°
2026-04-30 13:40 -7.73974 -63.12770 6945 ft 193 kts 37°
2026-04-30 13:40 -7.72848 -63.12006 6945 ft 193 kts 37°
2026-04-30 13:40 -7.71721 -63.11240 6945 ft 193 kts 37°
2026-04-30 13:40 -7.70594 -63.10477 6944 ft 193 kts 37°
2026-04-30 13:41 -7.69469 -63.09713 6944 ft 193 kts 37°
2026-04-30 13:41 -7.68346 -63.08952 6943 ft 193 kts 37°
2026-04-30 13:41 -7.67240 -63.08201 6944 ft 193 kts 37°
2026-04-30 13:41 -7.66194 -63.07491 6943 ft 193 kts 38°
2026-04-30 13:42 -7.65112 -63.06758 6941 ft 192 kts 37°
2026-04-30 13:42 -7.63993 -63.05999 6942 ft 192 kts 37°
2026-04-30 13:42 -7.61738 -63.04470 6941 ft 192 kts 37°
2026-04-30 13:43 -7.60615 -63.03708 6945 ft 192 kts 37°
2026-04-30 13:43 -7.59492 -63.02947 6944 ft 192 kts 37°
2026-04-30 13:43 -7.58378 -63.02191 6944 ft 193 kts 37°
2026-04-30 13:43 -7.57274 -63.01443 6943 ft 193 kts 37°
2026-04-30 13:44 -7.56165 -63.00691 6942 ft 193 kts 37°
2026-04-30 13:44 -7.55052 -62.99937 6939 ft 193 kts 37°
2026-04-30 13:44 -7.54029 -62.99244 6937 ft 193 kts 37°
2026-04-30 13:44 -7.52944 -62.98508 6943 ft 192 kts 37°
2026-04-30 13:45 -7.50765 -62.97032 6944 ft 193 kts 37°
2026-04-30 13:45 -7.49648 -62.96274 6944 ft 193 kts 37°
2026-04-30 13:45 -7.48529 -62.95516 6940 ft 193 kts 37°
2026-04-30 13:46 -7.47404 -62.94754 6940 ft 193 kts 38°
2026-04-30 13:46 -7.46284 -62.93995 6941 ft 192 kts 37°
2026-04-30 13:46 -7.45175 -62.93244 6943 ft 192 kts 37°
2026-04-30 13:46 -7.44026 -62.92465 6941 ft 192 kts 37°
2026-04-30 13:47 -7.42907 -62.91707 6945 ft 192 kts 37°
2026-04-30 13:47 -7.41794 -62.90953 6943 ft 193 kts 37°
2026-04-30 13:47 -7.40667 -62.90190 6944 ft 193 kts 37°
2026-04-30 13:47 -7.39551 -62.89435 6944 ft 193 kts 37°
2026-04-30 13:48 -7.38427 -62.88673 6940 ft 193 kts 37°
2026-04-30 13:48 -7.37304 -62.87913 6943 ft 193 kts 37°
2026-04-30 13:48 -7.36174 -62.87147 6942 ft 193 kts 37°
2026-04-30 13:48 -7.35055 -62.86390 6943 ft 193 kts 37°
2026-04-30 13:49 -7.33936 -62.85633 6942 ft 193 kts 37°
2026-04-30 13:49 -7.32838 -62.84889 6944 ft 193 kts 37°
2026-04-30 13:49 -7.31691 -62.84112 6941 ft 193 kts 37°
2026-04-30 13:49 -7.30558 -62.83346 6940 ft 193 kts 37°
2026-04-30 13:50 -7.29444 -62.82591 6940 ft 193 kts 37°
2026-04-30 13:50 -7.27195 -62.81069 6939 ft 193 kts 37°
2026-04-30 13:50 -7.26072 -62.80309 6942 ft 192 kts 37°
2026-04-30 13:51 -7.24946 -62.79547 6942 ft 193 kts 37°
2026-04-30 13:51 -7.23825 -62.78789 6942 ft 193 kts 37°
2026-04-30 13:51 -7.22708 -62.78033 6942 ft 193 kts 37°
2026-04-30 13:51 -7.21600 -62.77284 6941 ft 193 kts 37°
2026-04-30 13:52 -7.20458 -62.76510 6938 ft 193 kts 37°
2026-04-30 13:52 -7.19338 -62.75753 6940 ft 193 kts 37°
2026-04-30 13:52 -7.18214 -62.74992 6940 ft 193 kts 37°
2026-04-30 13:52 -7.17083 -62.74228 6941 ft 193 kts 37°
2026-04-30 13:53 -7.15970 -62.73475 6939 ft 193 kts 37°
2026-04-30 13:53 -7.14835 -62.72707 6940 ft 193 kts 37°
2026-04-30 13:53 -7.13716 -62.71950 6942 ft 193 kts 37°
2026-04-30 13:53 -7.12585 -62.71185 6940 ft 193 kts 37°
2026-04-30 13:54 -7.11465 -62.70428 6940 ft 193 kts 37°
2026-04-30 13:54 -7.10384 -62.69697 6940 ft 193 kts 37°
2026-04-30 13:54 -7.09257 -62.68935 6941 ft 193 kts 37°
2026-04-30 13:54 -7.08163 -62.68195 6941 ft 193 kts 37°
2026-04-30 13:55 -7.07032 -62.67430 6940 ft 193 kts 37°
2026-04-30 13:55 -7.05905 -62.66669 6939 ft 193 kts 37°
2026-04-30 13:55 -7.04784 -62.65911 6941 ft 193 kts 37°
2026-04-30 13:55 -7.03680 -62.65165 6940 ft 193 kts 37°
2026-04-30 13:56 -7.02624 -62.64451 6938 ft 193 kts 37°
2026-04-30 13:56 -7.01501 -62.63692 6940 ft 193 kts 37°
2026-04-30 13:56 -7.00376 -62.62932 6939 ft 193 kts 37°
2026-04-30 13:56 -6.99265 -62.62181 6940 ft 193 kts 37°
2026-04-30 13:57 -6.98144 -62.61423 6940 ft 193 kts 37°
2026-04-30 13:57 -6.97009 -62.60657 6940 ft 193 kts 37°
2026-04-30 13:57 -6.95882 -62.59895 6939 ft 193 kts 37°
2026-04-30 13:57 -6.94772 -62.59146 6940 ft 193 kts 37°
2026-04-30 13:58 -6.93646 -62.58385 6939 ft 193 kts 37°
2026-04-30 13:58 -6.91392 -62.56862 6939 ft 193 kts 37°
2026-04-30 13:58 -6.90264 -62.56100 6940 ft 193 kts 37°
2026-04-30 13:59 -6.89143 -62.55342 6940 ft 193 kts 37°
2026-04-30 13:59 -6.88073 -62.54620 6939 ft 194 kts 37°
2026-04-30 13:59 -6.86974 -62.53878 6940 ft 194 kts 37°
2026-04-30 13:59 -6.86045 -62.53250 6939 ft 194 kts 37°
2026-04-30 14:00 -6.85013 -62.52554 6940 ft 194 kts 37°
2026-04-30 14:00 -6.82753 -62.51027 6939 ft 194 kts 37°
2026-04-30 14:00 -6.81626 -62.50267 6939 ft 194 kts 37°
2026-04-30 14:01 -6.80499 -62.49506 6939 ft 194 kts 37°
2026-04-30 14:01 -6.79358 -62.48736 6939 ft 194 kts 37°
2026-04-30 14:01 -6.78267 -62.47999 6940 ft 194 kts 37°
2026-04-30 14:01 -6.77164 -62.47254 6940 ft 194 kts 37°
2026-04-30 14:02 -6.76095 -62.46533 6940 ft 194 kts 37°
2026-04-30 14:02 -6.74963 -62.45769 6939 ft 194 kts 37°
2026-04-30 14:02 -6.73829 -62.45003 6940 ft 194 kts 37°
2026-04-30 14:02 -6.72755 -62.44278 6941 ft 194 kts 37°
2026-04-30 14:03 -6.71629 -62.43519 6941 ft 194 kts 37°
2026-04-30 14:03 -6.70568 -62.42803 6941 ft 194 kts 37°
2026-04-30 14:03 -6.69407 -62.42019 6940 ft 194 kts 37°
2026-04-30 14:03 -6.68361 -62.41314 6940 ft 194 kts 37°
2026-04-30 14:04 -6.67197 -62.40528 6940 ft 194 kts 37°
2026-04-30 14:04 -6.66074 -62.39771 6940 ft 194 kts 37°
2026-04-30 14:04 -6.64932 -62.39001 6941 ft 194 kts 38°
2026-04-30 14:04 -6.63806 -62.38240 6941 ft 195 kts 37°
2026-04-30 14:05 -6.62740 -62.37522 6942 ft 194 kts 37°
2026-04-30 14:05 -6.61601 -62.36753 6940 ft 195 kts 37°
2026-04-30 14:05 -6.60474 -62.35994 6940 ft 195 kts 37°
2026-04-30 14:05 -6.59342 -62.35229 6941 ft 195 kts 37°
2026-04-30 14:06 -6.58209 -62.34466 6945 ft 195 kts 37°
2026-04-30 14:06 -6.56004 -62.32979 6945 ft 195 kts 37°
2026-04-30 14:07 -6.53737 -62.31450 6945 ft 195 kts 37°
2026-04-30 14:07 -6.52601 -62.30684 6945 ft 196 kts 37°
2026-04-30 14:07 -6.51451 -62.29909 6945 ft 196 kts 37°
2026-04-30 14:08 -6.49161 -62.28365 6944 ft 196 kts 37°
2026-04-30 14:08 -6.48035 -62.27606 6945 ft 196 kts 37°
2026-04-30 14:08 -6.45745 -62.26062 6944 ft 196 kts 37°
2026-04-30 14:09 -6.44602 -62.25292 6942 ft 196 kts 37°
2026-04-30 14:09 -6.43463 -62.24525 6944 ft 196 kts 37°
2026-04-30 14:09 -6.41200 -62.23000 6944 ft 196 kts 37°
2026-04-30 14:10 -6.40025 -62.22208 6944 ft 197 kts 37°
2026-04-30 14:10 -6.38881 -62.21437 6944 ft 197 kts 37°
2026-04-30 14:10 -6.37737 -62.20667 6944 ft 196 kts 37°
2026-04-30 14:10 -6.36658 -62.19940 6942 ft 196 kts 37°
2026-04-30 14:11 -6.35544 -62.19189 6942 ft 196 kts 37°
2026-04-30 14:11 -6.34445 -62.18449 6943 ft 197 kts 37°
2026-04-30 14:11 -6.33300 -62.17677 6943 ft 197 kts 37°
2026-04-30 14:11 -6.32148 -62.16901 6942 ft 197 kts 37°
2026-04-30 14:12 -6.31012 -62.16137 6942 ft 197 kts 37°
2026-04-30 14:12 -6.29854 -62.15356 6941 ft 197 kts 37°
2026-04-30 14:12 -6.28716 -62.14590 6942 ft 197 kts 37°
2026-04-30 14:12 -6.27942 -62.14068 6942 ft 197 kts 37°
2026-04-30 14:13 -6.26402 -62.13032 6943 ft 197 kts 37°
2026-04-30 14:13 -6.25301 -62.12291 6940 ft 197 kts 37°
2026-04-30 14:13 -6.24141 -62.11509 6940 ft 197 kts 37°
2026-04-30 14:13 -6.22986 -62.10731 6941 ft 197 kts 38°
2026-04-30 14:14 -6.21901 -62.10001 6942 ft 197 kts 37°
2026-04-30 14:14 -6.20761 -62.09234 6943 ft 197 kts 38°
2026-04-30 14:14 -6.19616 -62.08463 6940 ft 197 kts 37°
2026-04-30 14:14 -6.18464 -62.07687 6940 ft 197 kts 37°
2026-04-30 14:15 -6.17309 -62.06910 6940 ft 197 kts 37°
2026-04-30 14:15 -6.16161 -62.06138 6942 ft 197 kts 37°
2026-04-30 14:15 -6.15048 -62.05389 6941 ft 197 kts 37°
2026-04-30 14:15 -6.13886 -62.04607 6941 ft 198 kts 37°
2026-04-30 14:16 -6.12737 -62.03833 6942 ft 198 kts 38°
2026-04-30 14:16 -6.11584 -62.03057 6941 ft 198 kts 37°
2026-04-30 14:16 -6.10432 -62.02282 6942 ft 198 kts 37°
2026-04-30 14:16 -6.09278 -62.01505 6941 ft 198 kts 38°
2026-04-30 14:17 -6.08118 -62.00726 6942 ft 198 kts 38°
2026-04-30 14:17 -6.06968 -61.99952 6940 ft 198 kts 37°
2026-04-30 14:17 -6.05813 -61.99175 6942 ft 198 kts 37°
2026-04-30 14:17 -6.04650 -61.98392 6943 ft 198 kts 38°
2026-04-30 14:18 -6.03497 -61.97617 6940 ft 198 kts 38°
2026-04-30 14:18 -6.02344 -61.96841 6941 ft 198 kts 37°
2026-04-30 14:18 -6.00100 -61.95332 6940 ft 198 kts 37°
2026-04-30 14:19 -5.97849 -61.93818 6942 ft 198 kts 37°
2026-04-30 14:19 -5.96682 -61.93034 6942 ft 198 kts 38°
2026-04-30 14:19 -5.95519 -61.92250 6940 ft 198 kts 37°
2026-04-30 14:20 -5.94356 -61.91469 6941 ft 198 kts 37°
2026-04-30 14:20 -5.93211 -61.90699 6943 ft 198 kts 38°
2026-04-30 14:20 -5.90927 -61.89163 6942 ft 199 kts 37°
2026-04-30 14:21 -5.89852 -61.88441 6942 ft 199 kts 37°
2026-04-30 14:21 -5.88689 -61.87659 6941 ft 199 kts 37°
2026-04-30 14:21 -5.86396 -61.86118 6943 ft 198 kts 38°
2026-04-30 14:22 -5.85230 -61.85334 6942 ft 198 kts 37°
2026-04-30 14:22 -5.82907 -61.83773 6942 ft 198 kts 37°
2026-04-30 14:22 -5.81758 -61.83000 6942 ft 198 kts 37°
2026-04-30 14:23 -5.79451 -61.81450 6944 ft 198 kts 38°
2026-04-30 14:23 -5.77143 -61.79900 6943 ft 198 kts 38°
2026-04-30 14:24 -5.74852 -61.78360 6944 ft 198 kts 37°
2026-04-30 14:24 -5.73693 -61.77582 6945 ft 198 kts 37°
2026-04-30 14:25 -5.71371 -61.76022 6944 ft 199 kts 37°
2026-04-30 14:25 -5.69057 -61.74468 6944 ft 199 kts 38°
2026-04-30 14:26 -5.66732 -61.72906 6943 ft 199 kts 37°
2026-04-30 14:26 -5.65590 -61.72139 6944 ft 199 kts 38°
2026-04-30 14:26 -5.63277 -61.70586 6941 ft 199 kts 37°
2026-04-30 14:27 -5.62117 -61.69807 6942 ft 199 kts 38°
2026-04-30 14:27 -5.60950 -61.69024 6942 ft 199 kts 37°
2026-04-30 14:27 -5.59803 -61.68254 6943 ft 199 kts 37°
2026-04-30 14:28 -5.57495 -61.66705 6942 ft 199 kts 38°
2026-04-30 14:28 -5.56329 -61.65922 6942 ft 199 kts 37°
2026-04-30 14:28 -5.55180 -61.65150 6942 ft 199 kts 37°
2026-04-30 14:28 -5.54013 -61.64368 6942 ft 199 kts 38°
2026-04-30 14:29 -5.51690 -61.62808 6942 ft 199 kts 38°
2026-04-30 14:29 -5.49761 -61.61514 6943 ft 199 kts 38°
2026-04-30 14:30 -5.45905 -61.58926 6942 ft 199 kts 38°
2026-04-30 14:31 -5.43600 -61.57379 6940 ft 199 kts 38°
2026-04-30 14:31 -5.41294 -61.55833 6942 ft 199 kts 38°
2026-04-30 14:31 -5.40122 -61.55046 6941 ft 199 kts 38°
2026-04-30 14:32 -5.37836 -61.53513 6941 ft 199 kts 38°
2026-04-30 14:32 -5.36679 -61.52737 6941 ft 199 kts 38°
2026-04-30 14:32 -5.35522 -61.51960 6940 ft 199 kts 38°
2026-04-30 14:33 -5.34415 -61.51218 6939 ft 199 kts 37°
2026-04-30 14:33 -5.32094 -61.49662 6939 ft 199 kts 37°
2026-04-30 14:33 -5.30936 -61.48885 6937 ft 199 kts 37°
2026-04-30 14:34 -5.29775 -61.48106 6936 ft 199 kts 37°
2026-04-30 14:34 -5.28628 -61.47337 6938 ft 199 kts 38°
2026-04-30 14:34 -5.27473 -61.46563 6937 ft 199 kts 37°
2026-04-30 14:34 -5.26309 -61.45782 6937 ft 199 kts 38°
2026-04-30 14:35 -5.24367 -61.44481 6937 ft 199 kts 38°
2026-04-30 14:35 -5.22820 -61.43444 6937 ft 199 kts 37°
2026-04-30 14:35 -5.21675 -61.42676 6938 ft 199 kts 38°
2026-04-30 14:36 -5.20514 -61.41898 6938 ft 199 kts 38°
2026-04-30 14:36 -5.19341 -61.41112 6939 ft 199 kts 37°
2026-04-30 14:36 -5.18192 -61.40341 6937 ft 199 kts 37°
2026-04-30 14:36 -5.17018 -61.39555 6939 ft 199 kts 38°
2026-04-30 14:37 -5.15869 -61.38785 6940 ft 199 kts 38°
2026-04-30 14:37 -5.14708 -61.38007 6940 ft 199 kts 37°
2026-04-30 14:37 -5.13547 -61.37229 6940 ft 199 kts 37°
2026-04-30 14:37 -5.12370 -61.36441 6940 ft 199 kts 38°
2026-04-30 14:38 -5.11208 -61.35662 6942 ft 200 kts 37°
2026-04-30 14:38 -5.10044 -61.34882 6941 ft 200 kts 37°
2026-04-30 14:38 -5.08876 -61.34099 6946 ft 200 kts 37°
2026-04-30 14:38 -5.07708 -61.33318 6947 ft 200 kts 37°
2026-04-30 14:39 -5.06547 -61.32539 6946 ft 200 kts 37°
2026-04-30 14:39 -5.05371 -61.31752 6947 ft 200 kts 37°
2026-04-30 14:39 -5.04195 -61.30964 6947 ft 201 kts 37°
2026-04-30 14:40 -5.01856 -61.29397 6945 ft 201 kts 38°
2026-04-30 14:40 -5.00680 -61.28610 6947 ft 201 kts 37°
2026-04-30 14:40 -4.99524 -61.27835 6948 ft 201 kts 37°
2026-04-30 14:40 -4.98344 -61.27045 6947 ft 201 kts 37°
2026-04-30 14:41 -4.97223 -61.26295 6947 ft 201 kts 37°
2026-04-30 14:41 -4.96044 -61.25505 6946 ft 201 kts 37°
2026-04-30 14:41 -4.94871 -61.24719 6945 ft 201 kts 37°
2026-04-30 14:41 -4.93699 -61.23935 6945 ft 201 kts 37°
2026-04-30 14:42 -4.92531 -61.23152 6946 ft 201 kts 37°
2026-04-30 14:42 -4.91368 -61.22374 6945 ft 201 kts 37°
2026-04-30 14:42 -4.90204 -61.21595 6945 ft 201 kts 37°
2026-04-30 14:42 -4.89022 -61.20804 6944 ft 201 kts 37°
2026-04-30 14:43 -4.87849 -61.20018 6943 ft 201 kts 37°
2026-04-30 14:43 -4.86777 -61.19301 6944 ft 201 kts 37°
2026-04-30 14:43 -4.85733 -61.18602 6943 ft 201 kts 37°
2026-04-30 14:43 -4.84569 -61.17823 6943 ft 201 kts 37°
2026-04-30 14:44 -4.83399 -61.17039 6944 ft 201 kts 37°
2026-04-30 14:44 -4.82216 -61.16248 6943 ft 201 kts 37°
2026-04-30 14:44 -4.81041 -61.15462 6944 ft 201 kts 37°
2026-04-30 14:44 -4.79869 -61.14677 6942 ft 201 kts 37°
2026-04-30 14:45 -4.78709 -61.13901 6943 ft 201 kts 37°
2026-04-30 14:45 -4.77536 -61.13116 6943 ft 201 kts 37°
2026-04-30 14:45 -4.76356 -61.12326 6943 ft 201 kts 37°
2026-04-30 14:45 -4.75191 -61.11547 6943 ft 201 kts 37°
2026-04-30 14:46 -4.74023 -61.10766 6945 ft 201 kts 37°
2026-04-30 14:46 -4.72842 -61.09976 6944 ft 200 kts 38°
2026-04-30 14:46 -4.71689 -61.09204 6942 ft 200 kts 37°
2026-04-30 14:46 -4.70906 -61.08680 6942 ft 200 kts 37°
2026-04-30 14:47 -4.69342 -61.07634 6944 ft 200 kts 37°
2026-04-30 14:47 -4.68170 -61.06850 6944 ft 200 kts 38°
2026-04-30 14:47 -4.67001 -61.06068 6943 ft 201 kts 37°
2026-04-30 14:47 -4.65831 -61.05286 6945 ft 201 kts 38°
2026-04-30 14:48 -4.64670 -61.04508 6942 ft 201 kts 37°
2026-04-30 14:48 -4.63502 -61.03727 6941 ft 201 kts 37°
2026-04-30 14:48 -4.62324 -61.02940 6941 ft 201 kts 37°
2026-04-30 14:48 -4.61162 -61.02163 6942 ft 200 kts 37°
2026-04-30 14:49 -4.59994 -61.01381 6942 ft 200 kts 38°
2026-04-30 14:49 -4.58817 -61.00595 6941 ft 201 kts 38°
2026-04-30 14:49 -4.57658 -60.99819 6941 ft 201 kts 37°
2026-04-30 14:49 -4.56489 -60.99038 6939 ft 201 kts 38°
2026-04-30 14:50 -4.54151 -60.97474 6939 ft 201 kts 38°
2026-04-30 14:50 -4.52977 -60.96690 6939 ft 200 kts 38°
2026-04-30 14:51 -4.50643 -60.95129 6938 ft 201 kts 37°
2026-04-30 14:51 -4.49461 -60.94339 6938 ft 201 kts 37°
2026-04-30 14:51 -4.47136 -60.92784 6938 ft 200 kts 37°
2026-04-30 14:52 -4.45970 -60.92005 6939 ft 200 kts 37°
2026-04-30 14:52 -4.43634 -60.90444 6938 ft 200 kts 37°
2026-04-30 14:52 -4.42456 -60.89657 6939 ft 200 kts 37°
2026-04-30 14:53 -4.40134 -60.88105 6938 ft 200 kts 37°
2026-04-30 14:53 -4.38953 -60.87315 6937 ft 200 kts 37°
2026-04-30 14:54 -4.36631 -60.85764 6940 ft 200 kts 37°
2026-04-30 14:54 -4.34301 -60.84207 6938 ft 200 kts 38°
2026-04-30 14:55 -4.31968 -60.82648 6940 ft 200 kts 37°
2026-04-30 14:55 -4.30813 -60.81876 6939 ft 200 kts 37°
2026-04-30 14:55 -4.28468 -60.80310 6940 ft 200 kts 38°
2026-04-30 14:56 -4.26149 -60.78760 6940 ft 200 kts 37°
2026-04-30 14:56 -4.23816 -60.77203 6941 ft 200 kts 38°
2026-04-30 14:57 -4.22650 -60.76424 6938 ft 200 kts 37°
2026-04-30 14:57 -4.20312 -60.74862 6939 ft 200 kts 38°
2026-04-30 14:58 -4.17990 -60.73311 6940 ft 200 kts 38°
2026-04-30 14:58 -4.16810 -60.72523 6939 ft 200 kts 37°
2026-04-30 14:58 -4.14480 -60.70967 6938 ft 200 kts 37°
2026-04-30 14:59 -4.12150 -60.69411 6938 ft 200 kts 37°
2026-04-30 15:00 -4.08641 -60.67069 6940 ft 200 kts 38°
2026-04-30 15:00 -4.06312 -60.65514 6937 ft 200 kts 38°
2026-04-30 15:01 -4.03979 -60.63957 6938 ft 200 kts 38°
2026-04-30 15:01 -4.03199 -60.63436 6940 ft 200 kts 37°
2026-04-30 15:01 -4.00477 -60.61619 6937 ft 200 kts 37°
2026-04-30 15:02 -3.99324 -60.60850 6937 ft 200 kts 38°
2026-04-30 15:02 -3.98160 -60.60072 6937 ft 200 kts 37°
2026-04-30 15:03 -3.94656 -60.57733 6935 ft 200 kts 37°
2026-04-30 15:03 -3.92336 -60.56186 6938 ft 200 kts 38°
2026-04-30 15:04 -3.90007 -60.54631 6935 ft 200 kts 38°
2026-04-30 15:04 -3.86501 -60.52293 6936 ft 200 kts 38°
2026-04-30 15:05 -3.82997 -60.49954 6936 ft 200 kts 37°
2026-04-30 15:06 -3.80668 -60.48401 6935 ft 200 kts 37°
2026-04-30 15:06 -3.78324 -60.46837 6935 ft 200 kts 37°
2026-04-30 15:07 -3.75993 -60.45282 6932 ft 200 kts 37°
2026-04-30 15:07 -3.73663 -60.43728 6935 ft 200 kts 37°
2026-04-30 15:08 -3.71324 -60.42168 6935 ft 200 kts 38°
2026-04-30 15:08 -3.67818 -60.39831 6933 ft 200 kts 38°
2026-04-30 15:09 -3.65476 -60.38282 6935 ft 200 kts 35°
2026-04-30 15:09 -3.63008 -60.36918 6936 ft 201 kts 32°
2026-04-30 15:10 -3.60535 -60.35565 6933 ft 201 kts 32°
2026-04-30 15:11 -3.55557 -60.32846 6937 ft 202 kts 32°
2026-04-30 15:11 -3.53078 -60.31491 6938 ft 202 kts 32°
2026-04-30 15:12 -3.49344 -60.29452 6939 ft 202 kts 32°
2026-04-30 15:13 -3.46861 -60.28095 6937 ft 202 kts 32°
2026-04-30 15:14 -3.41879 -60.25362 6938 ft 202 kts 32°
2026-04-30 15:14 -3.38133 -60.23317 6940 ft 202 kts 32°
2026-04-30 15:16 -3.31896 -60.19913 6940 ft 202 kts 31°
2026-04-30 15:17 -3.25930 -60.20336 6359 ft 230 kts 352°
2026-04-30 15:18 -3.18092 -60.21980 5355 ft 213 kts 351°
2026-04-30 15:19 -3.13853 -60.22930 4657 ft 205 kts 340°